Regional Weather Roundup
Issued by NWS

Home | Current Version | Previous Version | Graphics & Text | Print | Product List | Glossary On
Versions: 1 2 3 4 5 6 7 8 9 10 11 12 13 14 15 16 17 18 19 20 21 22 23 24 25 26 27 28 29 30 31 32 33 34 35 36 37 38 39 40 41 42 43 44 45 46 47 48 49 50
000
ASUS43 KMKX 200620
RWRWI

WISCONSIN REGIONAL WEATHER ROUNDUP
NATIONAL WEATHER SERVICE MILWAUKEE/SULLIVAN WI
100 AM CDT FRI APR 20 2018

NOTE: "FAIR" INDICATES FEW OR NO CLOUDS BELOW 12,000 FEET WITH NO
SIGNIFICANT WEATHER AND/OR OBSTRUCTIONS TO VISIBILITY.

WIZ001-002-006>008-014>016-023>028-200700-
NORTHWEST WISCONSIN

CITY           SKY/WX    TMP DP  RH WIND       PRES   REMARKS
SUPERIOR ARPT  FAIR      36  17  47 SW8       30.41S WCI  30
6HR MIN TEMP:  33; 6HR MAX TEMP:  56;

ASHLAND        FAIR      33  14  45 SW7       30.40S WCI  27
6HR MIN TEMP:  28; 6HR MAX TEMP:  52;

HAYWARD        FAIR      27  19  72 CALM      30.42S
6HR MIN TEMP:  26; 6HR MAX TEMP:  53;

SIREN          FAIR      33  23  66 W3        30.44R
6HR MIN TEMP:  32; 6HR MAX TEMP:  50;

CUMBERLAND     FAIR      30  19  64 CALM      30.43R
RICE LAKE      FAIR      28  24  84 CALM      30.45S
CHETEK         FAIR      27  21  80 CALM      30.44S
6HR MIN TEMP:  27; 6HR MAX TEMP:  49;

LADYSMITH      FAIR      27  22  79 CALM      30.44S
6HR MIN TEMP:  27; 6HR MAX TEMP:  50;

EAU CLAIRE     FAIR      30  22  72 CALM      30.44R
6HR MIN TEMP:  29; 6HR MAX TEMP:  49;

MENOMONIE      FAIR      32  22  69 CALM      30.45S
6HR MIN TEMP:  32; 6HR MAX TEMP:  50;

NEW RICHMOND   FAIR      28  22  79 CALM      30.46R
6HR MIN TEMP:  28; 6HR MAX TEMP:  48;

OSCEOLA        FAIR      29  23  77 CALM      30.48R
6HR MIN TEMP:  29; 6HR MAX TEMP:  51;

$$

WIZ003>005-009-010-017-018-200700-
NORTH CENTRAL WISCONSIN

CITY           SKY/WX    TMP DP  RH WIND       PRES   REMARKS
MANITOWISH WTR FAIR      22  14  71 CALM      30.40S
6HR MIN TEMP:  22; 6HR MAX TEMP:  47;

ARBOR VITAE    FAIR      27  15  61 CALM      30.40S
6HR MIN TEMP:  24; 6HR MAX TEMP:  47;

WOODRUFF       FAIR      27  15  61 CALM      30.40S
6HR MIN TEMP:  24; 6HR MAX TEMP:  47;

RHINELANDER    FAIR      27  14  58 W5        30.40S WCI  22
6HR MIN TEMP:  23; 6HR MAX TEMP:  50;

EAGLE RIVER    FAIR      22  14  72 CALM      30.40S
6HR MIN TEMP:  22; 6HR MAX TEMP:  47;

LAND O LAKES   FAIR      18  12  79 CALM      30.41S
6HR MIN TEMP:  19; 6HR MAX TEMP:  47;

PHILLIPS       FAIR      22  18  85 CALM      30.41S
6HR MIN TEMP:  23; 6HR MAX TEMP:  51;

TOMAHAWK       FAIR      20  14  78 CALM      30.42S
6HR MIN TEMP:  20; 6HR MAX TEMP:  50;

MEDFORD        FAIR      31  18  58 CALM      30.42R
6HR MIN TEMP:  29; 6HR MAX TEMP:  47;

MERRILL          N/A     25  17  70 CALM      30.44R
6HR MIN TEMP:  25; 6HR MAX TEMP:  53;

$$

WIZ029-030-035-036-043>047-200700-
CENTRAL WISCONSIN

CITY           SKY/WX    TMP DP  RH WIND       PRES   REMARKS
WAUSAU         FAIR      31  22  69 NW7       30.41R WCI  24
6HR MIN TEMP:  31; 6HR MAX TEMP:  47;

MOSINEE        FAIR      34  21  60 NW5       30.43S WCI  30
MARSHFIELD     FAIR      31  17  56 NW7       30.41R WCI  24
6HR MIN TEMP:  31; 6HR MAX TEMP:  46;

STEVENS POINT  FAIR      25  20  82 CALM      30.43S
6HR MIN TEMP:  24; 6HR MAX TEMP:  46;

WAUPACA        FAIR      37  21  51 NW5       30.43R WCI  34
6HR MIN TEMP:  38; 6HR MAX TEMP:  50;

WAUTOMA        FAIR      34  18  52 W6        30.44R WCI  29
6HR MIN TEMP:  30; 6HR MAX TEMP:  48;

WISC RAPIDS    FAIR      28  18  66 CALM      30.44R
6HR MIN TEMP:  28; 6HR MAX TEMP:  48;

CAMP DOUGLAS   FAIR      24  20  84 CALM      30.44R
6HR MIN TEMP:  24; 6HR MAX TEMP:  46;

$$

WIZ011>013-019>022-031-037>040-048>050-200700-
NORTHEAST WISCONSIN

CITY           SKY/WX    TMP DP  RH WIND       PRES   REMARKS
ANTIGO         FAIR      22  16  75 CALM      30.41S
6HR MIN TEMP:  22; 6HR MAX TEMP:  46;

SHAWANO        FAIR      29  22  75 CALM      30.42R
6HR MIN TEMP:  28; 6HR MAX TEMP:  53;

OCONTO         FAIR      24  17  75 CALM      30.42S
6HR MIN TEMP:  24; 6HR MAX TEMP:  45;

STURGEON BAY   FAIR      30  18  60 CALM      30.42S
6HR MIN TEMP:  30; 6HR MAX TEMP:  47;

GREEN BAY      FAIR      28  22  78 CALM      30.42R
6HR MIN TEMP:  28; 6HR MAX TEMP:  46;

MANITOWOC      FAIR      29  24  82 CALM      30.43R
6HR MIN TEMP:  29; 6HR MAX TEMP:  47;

APPLETON       FAIR      34  19  55 NW8       30.39S WCI  27
CLINTONVILLE   FAIR      30  20  68 CALM      30.42S
6HR MIN TEMP:  30; 6HR MAX TEMP:  50;

OSHKOSH        FAIR      35  20  54 W3        30.41R
6HR MIN TEMP:  34; 6HR MAX TEMP:  47;

$$

WIZ032>034-041-042-053>061-200700-
SOUTHWEST WISCONSIN

CITY           SKY/WX    TMP DP  RH WIND       PRES   REMARKS
LA CROSSE      FAIR      32  27  81 CALM      30.46S
6HR MIN TEMP:  29; 6HR MAX TEMP:  50;

SPARTA         FAIR      23  21  92 CALM      30.47R
6HR MIN TEMP:  23; 6HR MAX TEMP:  48;

VIROQUA        FAIR      35  23  61 CALM      30.44S
6HR MIN TEMP:  33; 6HR MAX TEMP:  44;

BOSCOBEL       FAIR      27  23  85 CALM      30.48R
6HR MIN TEMP:  27; 6HR MAX TEMP:  50;

PRAIRIE DU CHI FAIR      29  25  83 CALM      30.48R
6HR MIN TEMP:  29; 6HR MAX TEMP:  46;

PLATTEVILLE    FAIR      34  27  75 N3        30.46R
6HR MIN TEMP:  34; 6HR MAX TEMP:  47;

$$

WIZ056-057-062-063-064-067-068-200700-
SOUTH CENTRAL WISCONSIN

CITY           SKY/WX    TMP DP  RH WIND       PRES   REMARKS
REEDSBURG      FAIR      26  24  91 CALM      30.45S
6HR MIN TEMP:  27; 6HR MAX TEMP:  46;

BARABOO/DELLS  FAIR      28  21  75 CALM      30.44S
6HR MIN TEMP:  28; 6HR MAX TEMP:  46;

LONE ROCK      FAIR      24  23  96 CALM      30.47R
6HR MIN TEMP:  24; 6HR MAX TEMP:  48;

MINERAL POINT  FAIR      37  23  56 CALM      30.44S
MADISON        FAIR      30  22  72 CALM      30.44R
6HR MIN TEMP:  29; 6HR MAX TEMP:  47;

MIDDLETON      FAIR      29  26  89 CALM      30.45R
6HR MIN TEMP:  29; 6HR MAX TEMP:  45;

WATERTOWN      FAIR      26  24  92 CALM      30.44R
6HR MIN TEMP:  25; 6HR MAX TEMP:  45;

MONROE         FAIR      37  21  52 NW8       30.44R WCI  31
JANESVILLE     FAIR      32  32 100 CALM      30.45R
$$

WIZ051-052-058>065-066-070>072-200700-
SOUTHEAST WISCONSIN

CITY           SKY/WX    TMP DP  RH WIND       PRES   REMARKS
MILWAUKEE      FAIR      40  26  57 W8        30.42S WCI  34
6HR MIN TEMP:  40; 6HR MAX TEMP:  49;

WAUKESHA       FAIR      32  23  69 W6        30.44R WCI  26
MILWAUKEE/TIMM FAIR      36  23  60 W3        30.43S
RACINE         FAIR      38  25  59 W7        30.44S WCI  33
6HR MIN TEMP:  38; 6HR MAX TEMP:  47;

BURLINGTON     FAIR      30  23  75 SW3       30.44R
6HR MIN TEMP:  29; 6HR MAX TEMP:  44;

KENOSHA        FAIR      36  25  64 NW6       30.42S WCI  31
6HR MIN TEMP:  35; 6HR MAX TEMP:  47;

FOND DU LAC    FAIR      30  22  72 S5        30.42R WCI  25
6HR MIN TEMP:  28; 6HR MAX TEMP:  48;

SHEBOYGAN      FAIR      39  23  52 NW7       30.41R WCI  34
6HR MIN TEMP:  36; 6HR MAX TEMP:  46;

WEST BEND      FAIR      36  25  64 CALM      30.42S
JUNEAU         FAIR      29  23  78 S3        30.44S
6HR MIN TEMP:  28; 6HR MAX TEMP:  42;

$$

LSZ147-162-200700-
LAKE SUPERIOR

STATION/POSITION TIME  TEMP    WIND        PRES    WAVE
                       AIR SEA DIR/SP/G            HT/PER
                 (UTC) (F)     (DEG/KT/KT) (MB)    (FT/S)
DEVILS ISLAND    0600   46     230/  8/  9 1029.7R
SAXON HARBOR     0540   29     200/  5/  6 1028.8R
$$

LMZ867-665-643>646-200700-
LAKE MICHIGAN

STATION/POSITION TIME  TEMP    WIND        PRES    WAVE
                       AIR SEA DIR/SP/G            HT/PER




USA.gov is the U.S. government's official web portal to all federal, state and local government web resources and services.